Regional Weather Roundup
Issued by NWS Green Bay, WI

Home | Current Version | Previous Version | Graphics & Text | Print | Product List | Glossary Off
Versions: 1 2 3 4 5 6 7 8 9 10 11 12 13 14 15 16 17 18 19 20 21 22 23 24 25 26 27 28 29 30 31 32 33 34 35 36 37 38 39 40 41 42 43 44 45 46 47 48 49 50

000
ASUS43 KGRB 212210
RWRGRB

NORTH-CENTRAL AND NORTHEAST WISCONSIN REGIONAL WEATHER ROUNDUP
NATIONAL WEATHER SERVICE GREEN BAY WI
500 PM CDT MON JUL 21 2014

WIZ005-009-010>012-018-019-212300-
NORTH CENTRAL WISCONSIN

CITY           SKY/WX    TMP DP  RH WIND       PRES   REMARKS
IRONWOOD       MOSUNNY   88  70  55 SW10      29.90S HX  92
MANITOWISH WTR CLOUDY    85  71  63 S12       29.97F HX  90
ARBOR VITAE    PTSUNNY   86  70  59 S10       29.98S HX  90
EAGLE RIVER    PTSUNNY   82  67  59 S8        30.00R
LAND O LAKES   CLOUDY    84  67  57 S6        30.00S
RHINELANDER    PTSUNNY   83  70  64 S9        30.01S
PHILLIPS       MOSUNNY   84  72  66 S10       29.96S
ANTIGO         PTSUNNY   82  71  70 S13       30.02S
TOMAHAWK       PTSUNNY   83  71  66 CALM      30.00S
MERRILL        CLOUDY    83  72  67 S8        29.99S
$$

WIZ013-073-212300-
NORTHEAST WISCONSIN

CITY           SKY/WX    TMP DP  RH WIND       PRES   REMARKS
IRON MOUNTAIN  MOSUNNY   85  69  58 S12G20    29.99S
MARINETTE      CLOUDY    81  64  57 SE12      29.99S
OCONTO         CLOUDY    83  68  58 S6        29.99S
$$

WIZ017-030-035>037-045-212300-
CENTRAL WISCONSIN

CITY           SKY/WX    TMP DP  RH WIND       PRES   REMARKS
MEDFORD        CLOUDY    82  71  70 S9        29.99F
WAUSAU         CLOUDY    85  69  58 S10       29.98S
MOSINEE        PTSUNNY   82  72  69 S8        30.01S
MARSHFIELD     CLOUDY    84  71  65 S12       29.99S
WISC RAPIDS    SUNNY     87  69  54 SW15      30.00S HX  91
STEVENS POINT  CLOUDY    85  68  56 S10       30.00S
WAUPACA        SUNNY     91  65  42 S10       30.00S HX  92
SHAWANO        PTSUNNY   86  67  54 S6        30.00S
CLINTONVILLE   SUNNY     86  64  48 S12       30.00S
$$

WIZ038-039-048-051-212300-
FOX VALLEY

CITY           SKY/WX    TMP DP  RH WIND       PRES   REMARKS
NWS GREEN BAY  SUNNY     85  67  54 S14       30.01S
APPLETON       MOSUNNY   84  64  51 S14       30.02F
OSHKOSH        SUNNY     85  68  56 S13       30.01S
FOND DU LAC    SUNNY     85  66  53 S13       30.02S
$$

WIZ022-050-052-212300-
EAST CENTRAL WISCONSIN

CITY           SKY/WX    TMP DP  RH WIND       PRES   REMARKS
STURGEON BAY   SUNNY     77  63  61 S14G22    30.03S
MANITOWOC      SUNNY     76  63  64 S20G26    30.03S
SHEBOYGAN      SUNNY     79  64  60 S12       30.04S
$$

LMZ563-521-522-541>543-212300-
LAKESHORE

STATION/POSITION TIME  TEMP    WIND        PRES    VSBY  WAVE
                       AIR SEA DIR/SP/G                  HT/PER
                 (UTC) (F)     (DEG/KT/KT) (MB)    (MI)  (FT/S)
SHEBOYGAN LKSHOR 2200   70     190/ 18/ 18 1017.3R
KEWAUNEE LKSHORE 2200   61     180/ 13/ 15 1017.8R
NORTHPORT PIER   2200   74     170/  7/ 15 1016.3S
N MID LAKE BUOY  2200   64 58  210/ 14/ 16 1016.1F         3/ 4
STURGEON BAY CG  2100   60 48  180/ 13     1017.5   3 1/2  2
CHAMBERS ISLAND  2200   79     150/  5/ 13 1015.9S
MENOMINEE LKSHOR 2200   66     140/ 11/ 13 1016.5R
$$



USA.gov is the U.S. government's official web portal to all federal, state and local government web resources and services.